RH
42 49 47 50 46 51 41 44 49 49 59 72 99 80 63 55 46 37 35 35 31 17 18 27 52 56 64 48 38 46 56 74 70 75 80 70 64 42 37 35 38 52 57 58 53 46 45
38 36 35 36 43 44 49 46 52 64 60 100 100 100 74 68 46 36 34 31 34 22 18 18 28 35 57 67 51 57 75 76 73 77 69 49 41 41 46 53 54 36 36 40 46 48 50
35 39 39 44 45 52 52 53 68 72 92 100 100 100 90 86 55 43 30 31 27 30 26 19 18 25 41 60 74 68 86 83 88 76 66 64 60 54 51 51 51 56 53 49 49 59 69
35 34 47 55 60 86 79 70 83 87 99 94 74 97 98 82 68 53 43 31 34 32 34 28 20 19 23 41 58 77 74 85 76 70 72 66 60 49 47 41 48 49 51 61 60 62 61
40 42 41 53 58 91 100 98 91 76 77 82 90 85 100 90 78 60 50 37 32 32 39 35 26 24 20 23 35 54 77 80 61 48 46 53 62 59 57 63 58 46 44 52 58 54 52
50 50 51 56 60 61 99 98 75 84 81 87 86 88 88 100 98 78 58 49 40 35 42 34 33 29 24 23 22 35 48 57 58 52 48 72 89 86 71 64 67 59 48 42 48 50 56
57 51 56 54 61 65 79 85 79 84 67 78 90 74 66 68 100 92 66 64 56 42 36 43 41 31 31 26 25 24 33 46 70 100 100 99 81 84 84 76 64 60 50 45 46 49 47
48 49 74 90 100 86 76 87 98 93 76 57 100 95 80 80 100 98 78 74 72 55 42 47 51 38 32 33 28 32 26 31 54 92 100 89 77 70 74 74 70 65 56 49 48 48 50
37 40 54 100 100 94 90 84 85 92 80 73 64 91 72 73 97 84 72 83 82 68 63 58 55 50 44 46 37 33 34 25 33 56 72 100 98 86 93 86 75 61 61 62 58 60 58
55 70 88 96 100 100 100 100 100 92 90 93 68 76 77 62 82 98 89 97 78 72 85 77 69 68 60 57 39 43 40 32 26 29 44 65 76 86 89 77 75 78 73 68 68 66 60
78 76 81 93 100 100 100 100 100 100 98 82 80 93 93 82 100 100 96 79 61 60 74 78 78 80 78 64 57 56 50 44 32 28 29 36 42 38 42 49 56 55 58 57 57 59 53
100 100 100 100 95 98 98 95 96 100 97 77 72 83 87 92 100 100 100 92 71 59 57 74 89 94 83 73 63 66 65 56 43 34 32 33 49 64 62 52 54 56 55 50 50 54 55
99 99 97 96 100 86 96 97 100 100 100 94 86 100 81 82 90 100 100 100 95 80 73 78 85 91 94 90 78 75 80 70 63 47 40 41 53 63 57 60 72 65 53 48 50 53 48
100 100 100 100 96 96 100 100 100 100 100 100 100 97 84 65 80 88 100 100 100 100 94 93 86 88 80 91 90 99 99 96 80 64 50 51 56 74 87 68 78 77 66 65 55 51 48
100 100 100 100 100 100 99 100 100 98 100 100 100 95 94 85 70 71 100 100 100 100 100 87 82 91 100 100 100 98 100 100 98 82 67 63 71 89 100 84 69 86 100 76 69 74 56
100 100 100 100 98 86 94 96 100 97 90 100 100 98 99 95 89 92 84 94 100 100 100 100 100 98 88 100 95 96 87 100 100 95 86 74 70 78 72 94 97 100 100 87 97 75 62
100 100 100 100 100 91 79 94 100 100 100 84 92 84 100 100 92 96 96 91 87 99 100 100 100 100 100 100 100 100 100 100 100 100 98 90 74 88 82 77 82 100 100 100 100 94 69
88 79 85 100 100 100 90 74 90 78 90 94 100 85 100 97 98 88 92 91 88 99 100 100 100 100 100 100 100 100 100 100 100 100 100 99 86 84 65 79 90 100 100 100 100 77 74
100 97 87 76 99 100 100 100 100 100 99 100 72 97 100 100 100 100 89 91 96 100 98 98 100 100 100 100 99 100 100 100 100 100 100 100 99 100 100 100 100 100 100 100 92 88 100
92 100 91 98 100 99 100 100 97 98 93 79 67 76 99 100 100 99 100 100 98 100 97 94 85 100 100 97 91 94 98 100 100 100 100 100 100 100 100 100 100 100 100 100 98 98 74
99 90 91 100 100 100 81 100 100 100 91 89 85 78 60 83 86 100 100 100 100 100 100 99 100 100 100 100 100 100 100 99 100 100 100 100 100 100 100 100 100 100 100 99 99 85 65
86 100 100 100 100 100 100 100 100 100 100 94 100 100 99 76 94 76 93 100 100 100 100 100 86 83 100 100 100 100 100 100 100 100 100 100 100 100 100 100 100 100 100 100 84 90 69
82 95 99 100 96 100 100 100 100 100 100 97 99 85 87 68 82 100 87 82 100 100 100 98 82 80 82 99 100 100 100 100 100 100 100 100 100 100 96 89 100 100 100 100 94 87 73
72 72 66 82 78 88 78 82 99 92 100 100 95 96 85 77 91 92 93 98 98 98 91 88 87 78 78 95 100 100 100 100 100 100 100 100 100 100 100 100 100 100 100 100 86 80 62
51 56 65 70 72 77 87 94 81 82 74 81 90 87 76 63 78 92 87 85 87 89 86 88 74 67 66 83 90 100 100 100 100 100 100 100 100 100 100 100 100 100 94 94 78 57 78
58 62 64 66 85 86 70 79 78 77 78 97 100 90 85 72 93 88 88 87 82 96 96 85 74 63 54 80 100 100 100 100 94 100 100 100 100 100 100 93 81 96 98 80 55 60 93
76 53 59 70 86 81 68 80 90 84 93 92 92 72 73 74 81 90 92 86 88 74 63 58 59 55 66 75 95 100 100 100 100 100 100 100 100 100 98 86 98 100 85 58 60 94 92
75 65 64 62 56 67 69 78 88 98 95 84 77 71 76 67 63 70 68 64 56 60 58 60 56 59 73 93 99 100 92 100 100 100 100 100 100 100 100 100 82 77 55 60 89 97 91
72 74 60 57 56 65 70 60 74 83 85 77 61 64 58 49 42 43 48 50 57 81 70 60 54 65 99 100 100 100 100 100 100 100 100 100 100 100 97 85 77 54 63 92 98 80 90
Wind_Speed
9 11 13 16 17 17 21 23 24 25 28 30 32 32 37 39 40 42 42 43 43 33 33 19 15 13 13 14 12 12 16 17 18 19 19 19 19 19 19 19 22 25 26 27 28 29 31
15 16 16 18 18 20 23 25 27 27 28 30 32 30 33 36 39 40 42 43 42 33 36 34 19 19 15 14 14 13 14 15 16 19 19 19 20 22 24 24 25 26 27 29 31 33 34
20 20 19 20 23 26 28 27 28 28 29 31 30 34 33 35 37 38 42 41 41 37 38 38 31 25 20 21 18 17 20 21 20 21 24 25 27 28 28 27 27 27 29 30 32 34 36
26 24 23 22 27 29 30 32 30 31 33 33 33 34 35 36 35 37 39 39 40 39 40 35 31 32 25 22 25 24 24 25 26 26 28 30 31 33 33 32 30 30 33 35 36 38 40
32 32 30 29 33 32 32 30 31 31 33 34 36 35 35 35 36 37 39 38 40 41 40 34 31 35 29 27 23 26 28 28 29 29 29 30 32 33 31 31 34 34 34 37 41 43 46
38 37 34 36 38 38 35 34 32 32 35 37 38 34 34 36 36 36 37 38 38 41 39 34 35 37 31 33 27 25 27 31 32 31 30 31 31 32 36 36 36 38 37 37 40 44 46
45 44 42 42 42 43 42 37 36 36 39 39 39 35 35 36 39 35 37 39 37 40 42 39 36 35 32 32 33 29 25 28 27 31 32 34 37 37 38 39 41 41 41 41 42 43 44
50 50 47 46 46 47 45 44 40 40 41 42 39 38 37 38 38 37 38 39 36 38 42 40 37 36 34 33 34 32 31 27 31 34 38 40 41 41 42 43 43 44 46 47 48 49 51
52 53 52 50 50 50 49 48 48 45 44 43 40 39 40 37 42 43 45 39 37 39 41 44 39 36 36 38 37 35 34 28 29 35 38 41 45 45 45 47 49 50 50 50 50 53 55
56 54 54 55 54 52 49 50 50 50 47 45 44 43 43 44 44 45 41 38 40 42 42 45 42 37 41 39 37 41 35 31 30 33 37 42 45 48 49 51 51 50 51 52 53 54 55
60 61 60 57 55 54 53 53 53 53 52 52 50 44 46 45 44 47 45 45 45 44 44 45 44 43 45 41 42 46 43 34 32 34 35 39 40 42 45 46 46 48 49 51 52 54 54
59 60 60 59 56 55 54 56 56 55 56 55 51 49 51 45 47 51 51 50 51 47 45 46 47 46 46 46 46 48 46 40 36 37 39 40 40 43 46 48 49 50 51 53 54 52 51
65 64 63 62 61 60 60 58 59 58 57 56 53 52 56 52 50 50 52 51 47 44 45 47 51 51 50 51 52 53 52 48 42 41 44 44 45 48 47 50 53 53 55 57 55 57 58
61 61 61 60 61 60 60 60 59 60 58 56 56 55 53 52 48 50 53 54 50 48 49 49 52 53 54 54 54 55 56 56 48 48 47 49 49 51 52 53 53 55 58 61 61 60 62
66 65 63 61 59 58 60 60 58 59 58 58 57 55 55 52 50 53 54 57 55 58 51 50 51 48 52 57 56 59 58 62 57 55 54 52 52 55 57 57 57 59 62 66 67 66 68
71 69 65 63 62 63 63 61 62 62 61 58 59 61 60 57 56 57 58 61 63 64 64 64 62 60 59 62 63 64 63 61 61 63 59 59 58 58 58 60 64 62 65 70 71 74 75
71 71 69 68 69 65 64 63 64 63 65 60 61 64 63 63 64 64 65 66 68 69 70 69 69 67 70 70 70 68 66 67 67 65 67 65 65 61 61 62 64 65 67 71 77 80 82
77 72 76 74 72 71 70 67 69 68 70 70 67 64 66 68 69 69 69 70 72 74 73 72 74 76 73 72 72 73 68 73 73 71 71 71 64 62 65 66 67 66 71 77 81 82 84
83 79 81 78 76 79 76 72 71 71 71 72 73 72 71 72 73 73 73 73 73 74 72 71 71 75 74 75 73 74 73 78 78 76 75 74 67 66 69 69 69 70 76 81 82 83 86
89 85 86 83 82 80 81 82 78 79 77 78 77 76 81 80 78 77 77 76 77 74 72 75 74 76 78 79 80 81 82 82 82 80 81 77 71 68 73 75 74 75 79 83 84 87 92
92 91 89 87 87 86 85 85 85 85 82 83 80 79 80 81 84 85 85 86 88 82 85 84 79 83 83 81 82 83 84 84 82 80 81 78 71 72 75 77 80 80 82 84 88 93 94
98 93 89 92 90 89 90 90 90 86 88 89 83 85 85 83 88 91 89 90 90 90 88 86 88 86 84 83 84 88 88 86 84 79 78 76 74 78 79 83 83 79 83 90 93 95 97
102 101 97 99 94 91 92 90 89 90 90 89 82 85 86 84 83 85 87 87 86 90 89 89 90 88 85 89 90 90 88 86 81 77 76 78 80 82 78 82 84 80 86 91 95 98 99
101 102 100 98 99 97 99 98 96 96 94 91 86 87 88 85 85 84 86 87 88 88 90 90 88 90 92 93 92 91 89 80 73 75 79 81 78 79 79 81 80 83 86 92 95 99 100
87 85 87 90 89 90 92 94 99 101 99 95 92 91 95 89 87 84 85 88 90 88 87 90 95 96 97 93 91 87 76 78 79 78 78 80 80 84 85 81 81 83 91 94 96 97 105
76 82 80 87 82 82 87 91 91 92 93 90 88 92 93 92 83 87 86 87 89 87 90 95 97 99 98 88 87 85 81 79 77 75 79 82 86 89 85 83 83 87 94 96 98 98 105
86 84 84 83 83 83 84 87 90 92 91 92 91 94 95 93 89 87 88 90 92 96 96 98 98 95 85 84 81 76 76 78 76 78 82 82 84 84 86 86 87 90 95 98 101 105 108
86 87 86 86 87 86 87 88 87 86 85 87 85 90 89 95 94 94 94 95 98 97 96 93 86 82 78 76 73 74 74 76 77 77 76 79 82 83 88 90 90 93 97 101 105 109 112
88 87 87 85 87 89 90 89 89 88 83 86 89 89 91 90 89 94 96 95 92 86 85 79 75 74 69 69 70 72 77 76 75 71 74 80 84 88 91 92 95 96 100 104 107 112 117
Wind_Direction
278 279 279 284 291 305 316 326 330 332 339 340 341 345 347 350 353 354 358 358 1 10 12 345 312 306 295 286 278 269 260 262 268 266 262 259 261 260 264 266 264 262 262 263 262 257 252
269 272 278 284 291 301 313 315 322 326 325 333 340 339 341 342 348 351 354 359 356 3 9 5 337 313 305 278 278 273 264 265 270 267 260 258 257 263 268 272 270 265 264 263 264 264 262
265 270 276 285 292 302 306 311 316 313 317 333 335 338 333 335 339 344 351 353 356 354 355 1 5 345 308 298 283 270 263 264 265 269 269 267 268 271 271 269 269 269 267 267 266 265 264
263 268 274 281 295 304 302 305 311 311 316 321 326 329 326 327 331 336 344 349 347 348 346 348 1 4 337 298 291 284 269 266 267 266 266 266 268 268 267 268 267 266 268 267 265 266 265
268 273 269 281 293 299 303 301 308 315 316 318 320 323 319 320 324 328 335 341 343 342 340 340 347 356 359 340 298 284 276 271 271 272 271 269 266 266 265 270 270 267 267 265 265 265 267
269 271 273 280 291 296 300 305 305 310 317 319 317 318 312 315 317 319 328 331 335 337 334 334 335 342 351 354 335 300 281 276 274 274 273 266 264 265 271 273 271 269 267 267 266 265 266
263 268 274 279 285 292 295 297 298 303 311 312 315 314 312 313 309 315 321 325 326 329 329 328 327 336 345 350 351 339 310 285 276 281 272 275 277 275 272 275 272 270 269 272 272 270 269
260 263 270 275 283 287 288 291 293 295 302 310 308 310 311 309 306 311 315 316 319 319 323 324 324 325 335 342 345 346 338 302 276 265 269 274 275 277 277 277 276 275 276 277 277 276 274
259 260 265 274 282 283 283 284 287 291 296 303 304 304 308 307 305 307 308 309 312 313 315 318 319 320 326 332 338 342 339 317 292 275 270 275 279 280 280 279 281 281 279 278 277 276 277
260 262 266 273 277 279 280 284 286 289 294 296 301 300 302 304 300 300 303 308 308 312 309 312 312 315 320 324 332 333 333 318 299 285 278 273 274 278 279 280 281 280 280 280 280 279 278
263 266 269 271 274 278 281 284 285 288 290 294 298 294 299 301 296 295 302 307 308 310 307 308 307 309 310 313 319 326 328 319 300 292 284 279 276 278 281 282 281 280 280 281 280 279 280
262 266 269 272 274 278 279 280 283 284 287 290 294 292 296 296 293 295 301 304 304 304 304 305 303 303 304 307 311 316 321 317 300 285 278 273 277 280 279 279 284 281 282 284 284 282 283
264 266 269 271 272 274 275 279 280 281 284 287 289 289 293 291 292 290 294 301 297 296 297 299 301 301 300 302 305 310 313 312 301 293 276 274 275 277 282 281 282 284 285 285 283 282 286
263 263 264 266 269 272 275 276 278 277 280 281 286 288 291 290 286 290 292 295 293 294 295 295 297 298 301 299 302 306 310 308 301 295 282 275 275 281 278 283 281 283 287 285 286 285 292
261 264 266 266 269 271 273 273 274 274 277 279 283 285 286 287 286 286 285 288 292 290 293 296 300 298 298 297 302 306 305 310 297 296 285 278 274 277 280 279 285 283 288 288 287 288 292
262 260 261 263 268 272 272 273 271 272 275 277 280 283 283 283 284 283 283 286 290 290 288 290 292 294 296 300 300 299 302 303 297 294 290 280 273 275 279 281 281 285 286 288 288 289 291
260 261 263 265 268 270 272 272 270 272 275 278 279 279 281 282 285 283 282 284 285 288 290 287 289 292 296 298 299 299 302 301 299 290 290 286 275 272 278 280 284 283 286 288 288 290 293
259 261 264 264 266 268 271 270 271 274 277 280 277 278 277 280 282 281 282 284 286 288 290 290 290 289 292 295 297 298 297 301 297 292 287 287 279 273 277 280 284 282 283 286 289 291 294
261 263 263 265 267 269 269 267 270 269 273 275 281 278 278 278 279 279 281 286 286 287 289 291 292 293 294 294 294 296 295 299 298 291 288 285 282 279 280 281 283 282 284 287 290 293 295
262 265 266 266 268 269 269 271 270 272 274 277 279 280 279 279 280 277 278 284 283 284 286 290 288 291 295 296 297 298 297 298 297 292 287 285 284 279 281 281 286 286 286 289 292 292 293
262 264 266 266 268 270 271 271 272 276 276 275 278 279 281 279 283 279 278 280 282 281 285 287 287 290 292 293 295 295 296 297 296 290 284 282 283 282 282 281 284 285 287 291 291 292 296
258 262 264 266 267 269 270 272 274 276 276 277 278 278 280 283 282 284 282 281 282 281 282 286 289 292 293 293 294 294 295 296 294 284 281 282 281 279 280 282 283 285 291 289 293 294 298
258 258 261 263 265 268 268 271 273 274 276 279 278 279 281 282 282 281 282 281 281 282 284 287 289 292 292 293 294 294 294 292 287 282 281 280 278 278 278 281 284 290 286 291 293 295 299
259 259 262 265 263 266 267 269 272 272 276 278 278 280 282 284 281 283 284 284 284 286 286 287 290 292 295 295 294 293 290 288 283 279 278 279 279 280 283 284 285 285 287 290 291 295 300
259 260 261 264 265 268 269 271 272 274 276 280 278 279 280 281 283 282 284 285 285 287 288 290 291 292 295 294 291 286 284 284 283 284 278 278 278 279 282 283 285 287 289 289 293 297 300
265 265 269 269 269 270 270 271 274 276 276 278 278 279 283 282 283 283 285 286 287 287 289 290 290 292 295 290 285 283 284 286 286 281 277 276 276 279 284 286 287 289 288 291 294 299 299
266 269 270 272 272 272 272 273 273 273 276 277 279 277 279 279 282 284 284 285 287 288 288 289 289 292 289 287 284 282 279 280 281 282 282 281 280 281 283 286 288 289 290 293 297 298 301
266 268 270 269 269 274 276 277 277 275 276 277 278 279 280 280 282 284 286 285 284 284 285 287 287 286 285 284 282 278 279 280 281 284 283 281 281 283 286 287 288 289 292 296 298 300 303
265 266 271 272 272 274 274 276 277 278 278 281 281 281 280 280 283 285 281 279 278 279 282 282 284 283 282 279 276 276 277 280 281 282 281 281 283 284 286 289 290 292 296 297 299 301 303